date,time,SUV Intensity [MED/Hr],UV Index,Daily total [MED],Since Last [MED]
02/08/2022,00:11:09,0.001,0.0,0.0,0.0
02/08/2022,00:12:08,0.000,0.0,0.0,0.0
02/08/2022,00:13:08,0.000,0.0,0.0,0.0
02/08/2022,00:14:08,0.000,0.0,0.0,0.0
02/08/2022,00:15:08,-0.001,0.0,0.0,0.0
02/08/2022,00:16:08,0.001,0.0,0.0,0.0
02/08/2022,00:17:08,0.000,0.0,0.0,0.0
02/08/2022,00:18:09,0.000,0.0,0.0,0.0
02/08/2022,00:19:09,0.000,0.0,0.0,0.0
02/08/2022,00:20:08,0.001,0.0,0.0,0.0
02/08/2022,00:21:08,-0.000,0.0,0.0,0.0
02/08/2022,00:22:17,0.001,0.0,0.0,0.0
02/08/2022,00:23:08,0.000,0.0,0.0,0.0
02/08/2022,00:24:08,-0.000,0.0,0.0,0.0
02/08/2022,00:25:17,0.000,0.0,0.0,0.0
02/08/2022,00:26:08,0.000,0.0,0.0,0.0
02/08/2022,00:27:08,-0.001,0.0,0.0,0.0
02/08/2022,00:28:09,0.000,0.0,0.0,0.0
02/08/2022,00:29:08,0.000,0.0,0.0,0.0
02/08/2022,00:30:09,-0.001,0.0,0.0,0.0
02/08/2022,00:31:08,0.000,0.0,0.0,0.0
02/08/2022,00:32:08,0.000,0.0,0.0,0.0
02/08/2022,00:33:16,0.001,0.0,0.0,0.0
02/08/2022,00:34:09,0.001,0.0,0.0,0.0
02/08/2022,00:35:09,0.000,0.0,0.0,0.0
02/08/2022,00:36:17,-0.001,0.0,0.0,0.0
02/08/2022,00:37:10,0.000,0.0,0.0,0.0
02/08/2022,00:38:09,0.000,0.0,0.0,0.0
02/08/2022,00:39:08,0.000,0.0,0.0,0.0
02/08/2022,00:40:08,0.000,0.0,0.0,0.0
02/08/2022,00:41:08,-0.001,0.0,0.0,0.0
02/08/2022,00:42:08,0.000,0.0,0.0,0.0
02/08/2022,00:43:09,0.000,0.0,0.0,0.0
02/08/2022,00:44:09,-0.000,0.0,0.0,0.0
02/08/2022,00:45:08,-0.001,0.0,0.0,0.0
02/08/2022,00:46:08,0.000,0.0,0.0,0.0
02/08/2022,00:47:09,0.001,0.0,0.0,0.0
02/08/2022,00:48:08,0.000,0.0,0.0,0.0
02/08/2022,00:49:08,-0.001,0.0,0.0,0.0
02/08/2022,00:50:08,-0.001,0.0,0.0,0.0
02/08/2022,00:51:17,0.000,0.0,0.0,0.0
02/08/2022,00:52:08,0.000,0.0,0.0,0.0
02/08/2022,00:53:08,-0.001,0.0,0.0,0.0
02/08/2022,00:54:09,-0.001,0.0,0.0,0.0
02/08/2022,00:55:08,0.000,0.0,0.0,0.0
02/08/2022,00:56:17,0.000,0.0,0.0,0.0
02/08/2022,00:57:08,0.001,0.0,0.0,0.0
02/08/2022,00:58:08,0.001,0.0,0.0,0.0
02/08/2022,00:59:17,0.001,0.0,0.0,0.0
02/08/2022,01:00:08,0.000,0.0,0.0,0.0
02/08/2022,01:01:08,0.001,0.0,0.0,0.0
02/08/2022,01:02:17,0.000,0.0,0.0,0.0
02/08/2022,01:03:09,0.000,0.0,0.0,0.0
02/08/2022,01:04:09,-0.001,0.0,0.0,0.0
02/08/2022,01:05:17,0.001,0.0,0.0,0.0
02/08/2022,01:06:08,0.000,0.0,0.0,0.0
02/08/2022,01:07:08,0.000,0.0,0.0,0.0
02/08/2022,01:08:09,0.000,0.0,0.0,0.0
02/08/2022,01:09:09,0.000,0.0,0.0,0.0
02/08/2022,01:10:08,0.000,0.0,0.0,0.0
02/08/2022,01:11:08,0.000,0.0,0.0,0.0
02/08/2022,01:12:09,0.000,0.0,0.0,0.0
02/08/2022,01:13:21,0.000,0.0,0.0,0.0
02/08/2022,01:15:09,0.000,0.0,0.0,0.0
02/08/2022,01:16:09,0.000,0.0,0.0,0.0
02/08/2022,01:17:09,0.000,0.0,0.0,0.0
02/08/2022,01:18:09,0.000,0.0,0.0,0.0
02/08/2022,01:19:09,0.000,0.0,0.0,0.0
02/08/2022,01:20:08,0.000,0.0,0.0,0.0
02/08/2022,01:21:08,0.000,0.0,0.0,0.0
02/08/2022,01:22:17,0.001,0.0,0.0,0.0
02/08/2022,01:23:08,0.000,0.0,0.0,0.0
02/08/2022,01:24:09,0.000,0.0,0.0,0.0
02/08/2022,01:25:17,0.000,0.0,0.0,0.0
02/08/2022,01:26:09,0.000,0.0,0.0,0.0
02/08/2022,01:27:09,-0.000,0.0,0.0,0.0
02/08/2022,01:28:08,0.001,0.0,0.0,0.0
02/08/2022,01:29:09,-0.001,0.0,0.0,0.0
02/08/2022,01:30:09,0.000,0.0,0.0,0.0
02/08/2022,01:31:16,0.000,0.0,0.0,0.0
02/08/2022,01:32:09,0.000,0.0,0.0,0.0
02/08/2022,01:33:10,0.000,0.0,0.0,0.0
02/08/2022,01:34:42,0.000,0.0,0.0,0.0
02/08/2022,01:36:09,0.000,0.0,0.0,0.0
02/08/2022,01:37:08,0.000,0.0,0.0,0.0
02/08/2022,01:38:08,0.001,0.0,0.0,0.0
02/08/2022,01:39:09,-0.001,0.0,0.0,0.0
02/08/2022,01:40:09,0.000,0.0,0.0,0.0
02/08/2022,01:41:08,0.000,0.0,0.0,0.0
02/08/2022,01:42:09,0.001,0.0,0.0,0.0
02/08/2022,01:43:09,0.000,0.0,0.0,0.0
02/08/2022,01:44:09,0.000,0.0,0.0,0.0
02/08/2022,01:45:09,0.000,0.0,0.0,0.0
02/08/2022,01:46:08,-0.000,0.0,0.0,0.0
02/08/2022,01:47:09,-0.001,0.0,0.0,0.0
02/08/2022,01:48:08,0.000,0.0,0.0,0.0
02/08/2022,01:49:08,0.000,0.0,0.0,0.0
02/08/2022,01:50:09,0.000,0.0,0.0,0.0
02/08/2022,01:51:09,0.000,0.0,0.0,0.0
02/08/2022,01:52:17,0.000,0.0,0.0,0.0
02/08/2022,01:53:09,0.001,0.0,0.0,0.0
02/08/2022,01:54:09,0.001,0.0,0.0,0.0
02/08/2022,01:55:09,0.000,0.0,0.0,0.0
02/08/2022,01:56:09,-0.001,0.0,0.0,0.0
02/08/2022,01:57:09,0.000,0.0,0.0,0.0
02/08/2022,01:58:08,0.000,0.0,0.0,0.0
02/08/2022,01:59:08,0.000,0.0,0.0,0.0
02/08/2022,02:00:17,0.001,0.0,0.0,0.0
02/08/2022,02:01:09,0.000,0.0,0.0,0.0
02/08/2022,02:02:09,0.000,0.0,0.0,0.0
02/08/2022,02:03:08,0.000,0.0,0.0,0.0
02/08/2022,02:04:09,0.000,0.0,0.0,0.0
02/08/2022,02:05:09,0.000,0.0,0.0,0.0
02/08/2022,02:06:09,0.000,0.0,0.0,0.0
02/08/2022,02:07:08,-0.000,0.0,0.0,0.0
02/08/2022,02:08:09,0.000,0.0,0.0,0.0
02/08/2022,02:09:17,-0.000,0.0,0.0,0.0
02/08/2022,02:10:08,0.001,0.0,0.0,0.0
02/08/2022,02:11:09,0.000,0.0,0.0,0.0
02/08/2022,02:12:09,-0.000,0.0,0.0,0.0
02/08/2022,02:13:09,0.001,0.0,0.0,0.0
02/08/2022,02:14:09,0.000,0.0,0.0,0.0
02/08/2022,02:15:09,0.001,0.0,0.0,0.0
02/08/2022,02:16:08,0.000,0.0,0.0,0.0
02/08/2022,02:17:09,0.000,0.0,0.0,0.0
02/08/2022,02:18:09,0.001,0.0,0.0,0.0
02/08/2022,02:19:09,0.000,0.0,0.0,0.0
02/08/2022,02:20:08,-0.001,0.0,0.0,0.0
02/08/2022,02:21:09,0.000,0.0,0.0,0.0
02/08/2022,02:22:08,0.000,0.0,0.0,0.0
02/08/2022,02:23:09,0.001,0.0,0.0,0.0
02/08/2022,02:24:17,0.001,0.0,0.0,0.0
02/08/2022,02:25:08,0.000,0.0,0.0,0.0
02/08/2022,02:26:08,0.000,0.0,0.0,0.0
02/08/2022,02:27:17,0.001,0.0,0.0,0.0
02/08/2022,02:28:09,0.000,0.0,0.0,0.0
02/08/2022,02:29:09,0.001,0.0,0.0,0.0
02/08/2022,02:30:25,0.000,0.0,0.0,0.0
02/08/2022,02:32:09,0.000,0.0,0.0,0.0
02/08/2022,02:33:08,0.000,0.0,0.0,0.0
02/08/2022,02:34:09,0.001,0.0,0.0,0.0
02/08/2022,02:35:17,0.000,0.0,0.0,0.0
02/08/2022,02:36:08,0.001,0.0,0.0,0.0
02/08/2022,02:37:09,0.000,0.0,0.0,0.0
02/08/2022,02:38:08,0.000,0.0,0.0,0.0
02/08/2022,02:39:08,0.000,0.0,0.0,0.0
02/08/2022,02:40:09,0.000,0.0,0.0,0.0
02/08/2022,02:41:09,0.000,0.0,0.0,0.0
02/08/2022,02:42:09,0.000,0.0,0.0,0.0
02/08/2022,02:43:09,0.000,0.0,0.0,0.0
02/08/2022,02:44:09,0.000,0.0,0.0,0.0
02/08/2022,02:45:09,0.000,0.0,0.0,0.0
02/08/2022,02:46:09,0.000,0.0,0.0,0.0
02/08/2022,02:47:09,0.000,0.0,0.0,0.0
02/08/2022,02:48:08,-0.000,0.0,0.0,0.0
02/08/2022,02:49:09,0.000,0.0,0.0,0.0
02/08/2022,02:50:11,0.000,0.0,0.0,0.0
02/08/2022,02:51:09,0.001,0.0,0.0,0.0
02/08/2022,02:52:09,0.000,0.0,0.0,0.0
02/08/2022,02:53:17,0.000,0.0,0.0,0.0
02/08/2022,02:54:08,0.000,0.0,0.0,0.0
02/08/2022,02:55:09,0.001,0.0,0.0,0.0
02/08/2022,02:56:17,0.000,0.0,0.0,0.0
02/08/2022,02:57:08,0.001,0.0,0.0,0.0
02/08/2022,02:58:09,0.000,0.0,0.0,0.0
02/08/2022,02:59:17,0.000,0.0,0.0,0.0
02/08/2022,03:00:10,0.000,0.0,0.0,0.0
02/08/2022,03:01:09,0.000,0.0,0.0,0.0
02/08/2022,03:02:08,0.000,0.0,0.0,0.0
02/08/2022,03:03:09,0.000,0.0,0.0,0.0
02/08/2022,03:04:09,0.001,0.0,0.0,0.0
02/08/2022,03:05:09,0.000,0.0,0.0,0.0
02/08/2022,03:06:09,0.000,0.0,0.0,0.0
02/08/2022,03:07:09,0.001,0.0,0.0,0.0
02/08/2022,03:08:09,0.000,0.0,0.0,0.0
02/08/2022,03:09:09,0.000,0.0,0.0,0.0
02/08/2022,03:10:09,0.001,0.0,0.0,0.0
02/08/2022,03:11:09,0.000,0.0,0.0,0.0
02/08/2022,03:12:09,0.001,0.0,0.0,0.0
02/08/2022,03:13:09,-0.001,0.0,0.0,0.0
02/08/2022,03:14:17,0.000,0.0,0.0,0.0
02/08/2022,03:15:09,-0.000,0.0,0.0,0.0
02/08/2022,03:16:09,0.000,0.0,0.0,0.0
02/08/2022,03:17:09,0.000,0.0,0.0,0.0
02/08/2022,03:18:09,0.000,0.0,0.0,0.0
02/08/2022,03:19:18,0.000,0.0,0.0,0.0
02/08/2022,03:20:09,0.000,0.0,0.0,0.0
02/08/2022,03:21:09,0.000,0.0,0.0,0.0
02/08/2022,03:22:09,0.001,0.0,0.0,0.0
02/08/2022,03:23:08,0.001,0.0,0.0,0.0
02/08/2022,03:24:09,0.000,0.0,0.0,0.0
02/08/2022,03:25:17,0.000,0.0,0.0,0.0
02/08/2022,03:26:08,0.000,0.0,0.0,0.0
02/08/2022,03:27:09,0.000,0.0,0.0,0.0
02/08/2022,03:28:17,0.001,0.0,0.0,0.0
02/08/2022,03:29:09,0.000,0.0,0.0,0.0
02/08/2022,03:30:08,0.000,0.0,0.0,0.0
02/08/2022,03:31:07,-0.001,0.0,0.0,0.0
02/08/2022,03:32:09,0.000,0.0,0.0,0.0
02/08/2022,03:33:09,0.001,0.0,0.0,0.0
02/08/2022,03:34:09,0.001,0.0,0.0,0.0
02/08/2022,03:35:09,0.000,0.0,0.0,0.0
02/08/2022,03:36:09,0.000,0.0,0.0,0.0
02/08/2022,03:37:09,0.000,0.0,0.0,0.0
02/08/2022,03:38:09,0.000,0.0,0.0,0.0
02/08/2022,03:39:09,0.000,0.0,0.0,0.0
02/08/2022,03:40:09,0.001,0.0,0.0,0.0
02/08/2022,03:41:09,-0.000,0.0,0.0,0.0
02/08/2022,03:42:09,0.000,0.0,0.0,0.0
02/08/2022,03:43:17,0.000,0.0,0.0,0.0
02/08/2022,03:44:08,0.001,0.0,0.0,0.0
02/08/2022,03:45:09,0.001,0.0,0.0,0.0
02/08/2022,03:46:17,-0.000,0.0,0.0,0.0
02/08/2022,03:47:09,-0.001,0.0,0.0,0.0
02/08/2022,03:48:09,0.000,0.0,0.0,0.0
02/08/2022,03:49:09,0.000,0.0,0.0,0.0
02/08/2022,03:50:09,-0.001,0.0,0.0,0.0
02/08/2022,03:51:09,0.000,0.0,0.0,0.0
02/08/2022,03:52:08,-0.001,0.0,0.0,0.0
02/08/2022,03:53:09,0.000,0.0,0.0,0.0
02/08/2022,03:54:09,0.000,0.0,0.0,0.0
02/08/2022,03:55:09,0.000,0.0,0.0,0.0
02/08/2022,03:56:09,-0.001,0.0,0.0,0.0
02/08/2022,03:57:09,0.000,0.0,0.0,0.0
02/08/2022,03:58:09,0.001,0.0,0.0,0.0
02/08/2022,03:59:09,-0.001,0.0,0.0,0.0
02/08/2022,04:00:09,0.000,0.0,0.0,0.0
02/08/2022,04:01:09,0.001,0.0,0.0,0.0
02/08/2022,04:02:09,-0.001,0.0,0.0,0.0
02/08/2022,04:03:09,0.000,0.0,0.0,0.0
02/08/2022,04:04:09,0.001,0.0,0.0,0.0
02/08/2022,04:05:08,0.000,0.0,0.0,0.0
02/08/2022,04:06:09,0.000,0.0,0.0,0.0
02/08/2022,04:07:17,0.000,0.0,0.0,0.0
02/08/2022,04:08:08,0.000,0.0,0.0,0.0
02/08/2022,04:09:09,0.000,0.0,0.0,0.0
02/08/2022,04:10:09,0.000,0.0,0.0,0.0
02/08/2022,04:11:09,-0.000,0.0,0.0,0.0
02/08/2022,04:12:09,0.001,0.0,0.0,0.0
02/08/2022,04:13:09,0.000,0.0,0.0,0.0
02/08/2022,04:14:09,0.001,0.0,0.0,0.0
02/08/2022,04:15:09,0.000,0.0,0.0,0.0
02/08/2022,04:16:10,0.000,0.0,0.0,0.0
02/08/2022,04:17:09,0.000,0.0,0.0,0.0
02/08/2022,04:18:09,0.000,0.0,0.0,0.0
02/08/2022,04:19:09,0.000,0.0,0.0,0.0
02/08/2022,04:20:09,0.000,0.0,0.0,0.0
02/08/2022,04:21:09,0.000,0.0,0.0,0.0
02/08/2022,04:22:09,0.000,0.0,0.0,0.0
02/08/2022,04:23:09,0.001,0.0,0.0,0.0
02/08/2022,04:24:08,0.001,0.0,0.0,0.0
02/08/2022,04:25:17,0.001,0.0,0.0,0.0
02/08/2022,04:26:09,0.001,0.0,0.0,0.0
02/08/2022,04:27:09,0.001,0.0,0.0,0.0
02/08/2022,04:28:09,0.001,0.0,0.0,0.0
02/08/2022,04:29:09,0.001,0.0,0.0,0.0
02/08/2022,04:30:09,0.000,0.0,0.0,0.0
02/08/2022,04:31:09,0.000,0.0,0.0,0.0
02/08/2022,04:32:09,0.001,0.0,0.0,0.0
02/08/2022,04:33:09,0.001,0.0,0.0,0.0
02/08/2022,04:34:18,0.001,0.0,0.0,0.0
02/08/2022,04:35:09,0.001,0.0,0.0,0.0
02/08/2022,04:36:19,0.001,0.0,0.0,0.0
02/08/2022,04:37:08,0.001,0.0,0.0,0.0
02/08/2022,04:38:09,0.001,0.0,0.0,0.0
02/08/2022,04:39:09,0.001,0.0,0.0,0.0
02/08/2022,04:40:09,0.002,0.0,0.0,0.0
02/08/2022,04:41:09,0.001,0.0,0.0,0.0
02/08/2022,04:42:09,0.002,0.0,0.0,0.0
02/08/2022,04:43:09,0.003,0.0,0.0,0.0
02/08/2022,04:44:09,0.001,0.0,0.0,0.0
02/08/2022,04:45:09,0.002,0.0,0.0,0.0
02/08/2022,04:46:09,0.002,0.0,0.0,0.0
02/08/2022,04:47:09,0.003,0.0,0.0,0.0
02/08/2022,04:48:09,0.003,0.0,0.0,0.0
02/08/2022,04:49:09,0.003,0.0,0.0,0.0
02/08/2022,04:50:09,0.003,0.0,0.0,0.0
02/08/2022,04:51:09,0.003,0.0,0.0,0.0
02/08/2022,04:52:09,0.002,0.0,0.0,0.0
02/08/2022,04:53:09,0.003,0.0,0.0,0.0
02/08/2022,04:54:17,0.003,0.0,0.0,0.0
02/08/2022,04:55:09,0.003,0.0,0.0,0.0
02/08/2022,04:56:09,0.003,0.0,0.0,0.0
02/08/2022,04:57:09,0.003,0.0,0.0,0.0
02/08/2022,04:58:09,0.004,0.0,0.0,0.0
02/08/2022,04:59:09,0.004,0.0,0.0,0.0
02/08/2022,05:00:17,0.002,0.0,0.0,0.0
02/08/2022,05:01:08,0.004,0.0,0.0,0.0
02/08/2022,05:02:09,0.004,0.0,0.0,0.0
02/08/2022,05:03:09,0.005,0.0,0.0,0.0
02/08/2022,05:04:09,0.005,0.0,0.0,0.0
02/08/2022,05:05:09,0.005,0.0,0.0,0.0
02/08/2022,05:06:09,0.005,0.0,0.0,0.0
02/08/2022,05:07:09,0.005,0.0,0.0,0.0
02/08/2022,05:08:09,0.005,0.0,0.0,0.0
02/08/2022,05:09:09,0.005,0.0,0.0,0.0
02/08/2022,05:10:09,0.005,0.0,0.0,0.0
02/08/2022,05:11:09,0.006,0.0,0.0,0.0
02/08/2022,05:12:09,0.007,0.0,0.0,0.0
02/08/2022,05:13:09,0.008,0.0,0.0,0.0
02/08/2022,05:14:09,0.007,0.0,0.0,0.0
02/08/2022,05:15:17,0.008,0.0,0.001,0.001
02/08/2022,05:16:09,0.009,0.0,0.001,0.0
02/08/2022,05:17:09,0.010,0.0,0.001,0.0
02/08/2022,05:18:17,0.011,0.0,0.001,0.0
02/08/2022,05:19:09,0.011,0.0,0.001,0.0
02/08/2022,05:20:09,0.011,0.0,0.001,0.0
02/08/2022,05:21:15,0.013,0.0,0.002,0.001
02/08/2022,05:22:09,0.012,0.0,0.002,0.0
02/08/2022,05:23:16,0.012,0.0,0.002,0.0
02/08/2022,05:24:17,0.011,0.0,0.002,0.0
02/08/2022,05:25:09,0.012,0.0,0.002,0.0
02/08/2022,05:26:09,0.012,0.0,0.003,0.001
02/08/2022,05:27:10,0.013,0.0,0.003,0.0
02/08/2022,05:28:09,0.014,0.0,0.003,0.0
02/08/2022,05:29:09,0.017,0.0,0.003,0.0
02/08/2022,05:30:09,0.018,0.0,0.004,0.001
02/08/2022,05:31:09,0.019,0.0,0.004,0.0
02/08/2022,05:32:09,0.020,0.0,0.004,0.0
02/08/2022,05:33:09,0.021,0.0,0.005,0.001
02/08/2022,05:34:09,0.022,0.0,0.005,0.0
02/08/2022,05:35:09,0.022,0.0,0.005,0.0
02/08/2022,05:36:09,0.022,0.0,0.006,0.001
02/08/2022,05:37:09,0.022,0.0,0.006,0.0
02/08/2022,05:38:09,0.020,0.0,0.006,0.0
02/08/2022,05:39:17,0.023,0.0,0.007,0.001
02/08/2022,05:40:09,0.026,0.0,0.007,0.0
02/08/2022,05:41:09,0.029,0.0,0.008,0.001
02/08/2022,05:42:09,0.030,0.0,0.008,0.0
02/08/2022,05:43:09,0.031,0.0,0.009,0.001
02/08/2022,05:44:09,0.033,0.0,0.009,0.0
02/08/2022,05:45:10,0.034,0.0,0.01,0.001
02/08/2022,05:46:09,0.035,0.0,0.01,0.0
02/08/2022,05:47:09,0.037,0.0,0.011,0.001
02/08/2022,05:48:09,0.036,0.0,0.011,0.0
02/08/2022,05:49:09,0.037,0.0,0.012,0.001
02/08/2022,05:50:09,0.038,0.0,0.013,0.001
02/08/2022,05:51:09,0.039,0.0,0.013,0.0
02/08/2022,05:52:10,0.042,0.0,0.014,0.001
02/08/2022,05:53:09,0.043,0.0,0.015,0.001
02/08/2022,05:54:09,0.045,0.0,0.015,0.0
02/08/2022,05:55:09,0.047,0.0,0.016,0.001
02/08/2022,05:56:09,0.049,0.0,0.017,0.001
02/08/2022,05:57:09,0.049,0.0,0.018,0.001
02/08/2022,05:58:09,0.050,0.0,0.019,0.001
02/08/2022,05:59:09,0.051,0.0,0.019,0.0
02/08/2022,06:00:18,0.052,0.0,0.02,0.001
02/08/2022,06:01:09,0.053,0.0,0.021,0.001
02/08/2022,06:02:09,0.055,0.0,0.022,0.001
02/08/2022,06:03:17,0.054,0.0,0.023,0.001
02/08/2022,06:04:09,0.055,0.0,0.024,0.001
02/08/2022,06:05:09,0.057,0.0,0.025,0.001
02/08/2022,06:06:09,0.061,0.0,0.026,0.001
02/08/2022,06:07:09,0.065,0.0,0.027,0.001
02/08/2022,06:08:10,0.070,0.0,0.028,0.001
02/08/2022,06:09:09,0.073,0.0,0.029,0.001
02/08/2022,06:10:09,0.076,0.0,0.03,0.001
02/08/2022,06:11:09,0.079,0.0,0.032,0.002
02/08/2022,06:12:09,0.081,0.0,0.033,0.001
02/08/2022,06:13:09,0.083,0.0,0.034,0.001
02/08/2022,06:14:09,0.085,0.0,0.036,0.002
02/08/2022,06:15:09,0.088,0.0,0.037,0.001
02/08/2022,06:16:09,0.090,0.0,0.039,0.002
02/08/2022,06:17:09,0.092,0.0,0.04,0.001
02/08/2022,06:18:09,0.095,0.0,0.042,0.002
02/08/2022,06:19:09,0.096,0.0,0.043,0.001
02/08/2022,06:20:09,0.100,0.0,0.045,0.002
02/08/2022,06:21:18,0.102,0.0,0.047,0.002
02/08/2022,06:22:09,0.103,0.0,0.048,0.001
02/08/2022,06:23:09,0.107,0.0,0.05,0.002
02/08/2022,06:24:18,0.110,0.0,0.052,0.002
02/08/2022,06:25:09,0.112,0.0,0.054,0.002
02/08/2022,06:26:09,0.113,0.0,0.056,0.002
02/08/2022,06:27:09,0.117,0.0,0.058,0.002
02/08/2022,06:28:09,0.119,0.0,0.06,0.002
02/08/2022,06:29:09,0.120,0.0,0.062,0.002
02/08/2022,06:30:17,0.123,0.0,0.064,0.002
02/08/2022,06:31:09,0.127,0.0,0.066,0.002
02/08/2022,06:32:18,0.126,0.0,0.068,0.002
02/08/2022,06:33:09,0.126,0.0,0.07,0.002
02/08/2022,06:34:09,0.127,0.0,0.072,0.002
02/08/2022,06:35:09,0.125,0.0,0.074,0.002
02/08/2022,06:36:09,0.122,0.0,0.076,0.002
02/08/2022,06:37:10,0.120,0.0,0.078,0.002
02/08/2022,06:38:10,0.120,0.0,0.08,0.002
02/08/2022,06:39:09,0.119,0.0,0.082,0.002
02/08/2022,06:40:09,0.118,0.0,0.084,0.002
02/08/2022,06:41:09,0.116,0.0,0.086,0.002
02/08/2022,06:42:10,0.115,0.0,0.088,0.002
02/08/2022,06:43:10,0.114,0.0,0.09,0.002
02/08/2022,06:44:10,0.112,0.0,0.092,0.002
02/08/2022,06:45:09,0.114,0.0,0.094,0.002
02/08/2022,06:46:09,0.116,0.0,0.096,0.002
02/08/2022,06:47:09,0.118,0.0,0.098,0.002
02/08/2022,06:48:17,0.119,0.0,0.1,0.002
02/08/2022,06:49:09,0.118,0.0,0.101,0.001
02/08/2022,06:50:10,0.120,0.0,0.103,0.002
02/08/2022,06:51:09,0.123,0.0,0.106,0.003
02/08/2022,06:52:11,0.125,0.0,0.108,0.002
02/08/2022,06:53:09,0.125,0.0,0.11,0.002
02/08/2022,06:54:17,0.126,0.0,0.112,0.002
02/08/2022,06:55:09,0.125,0.0,0.114,0.002
02/08/2022,06:56:09,0.125,0.0,0.116,0.002
02/08/2022,06:57:09,0.134,0.0,0.118,0.002
02/08/2022,06:58:09,0.141,0.0,0.12,0.002
02/08/2022,06:59:09,0.143,0.0,0.123,0.003
02/08/2022,07:00:09,0.140,0.0,0.125,0.002
02/08/2022,07:01:09,0.137,0.0,0.127,0.002
02/08/2022,07:02:09,0.131,0.0,0.13,0.003
02/08/2022,07:03:09,0.124,0.0,0.132,0.002
02/08/2022,07:04:09,0.122,0.0,0.134,0.002
02/08/2022,07:05:11,0.122,0.0,0.136,0.002
02/08/2022,07:06:10,0.132,0.0,0.138,0.002
02/08/2022,07:07:09,0.132,0.0,0.14,0.002
02/08/2022,07:08:09,0.128,0.0,0.142,0.002
02/08/2022,07:09:09,0.124,0.0,0.145,0.003
02/08/2022,07:10:09,0.123,0.0,0.147,0.002
02/08/2022,07:11:09,0.130,0.0,0.149,0.002
02/08/2022,07:12:17,0.135,0.0,0.151,0.002
02/08/2022,07:13:09,0.141,0.0,0.153,0.002
02/08/2022,07:14:09,0.144,0.0,0.155,0.002
02/08/2022,07:15:09,0.144,0.0,0.158,0.003
02/08/2022,07:16:09,0.147,0.0,0.16,0.002
02/08/2022,07:17:09,0.150,0.0,0.163,0.003
02/08/2022,07:18:09,0.155,0.0,0.165,0.002
02/08/2022,07:19:09,0.153,0.0,0.168,0.003
02/08/2022,07:20:09,0.151,0.0,0.17,0.002
02/08/2022,07:21:10,0.144,0.0,0.173,0.003
02/08/2022,07:22:09,0.133,0.0,0.175,0.002
02/08/2022,07:23:17,0.126,0.0,0.178,0.003
02/08/2022,07:24:09,0.136,0.0,0.179,0.001
02/08/2022,07:25:09,0.144,0.0,0.182,0.003
02/08/2022,07:26:09,0.155,0.0,0.184,0.002
02/08/2022,07:27:09,0.168,0.0,0.187,0.003
02/08/2022,07:28:09,0.182,0.0,0.19,0.003
02/08/2022,07:29:09,0.188,0.0,0.193,0.003
02/08/2022,07:30:09,0.182,0.0,0.196,0.003
02/08/2022,07:31:09,0.172,0.0,0.199,0.003
02/08/2022,07:32:09,0.175,0.0,0.202,0.003
02/08/2022,07:33:09,0.184,0.0,0.205,0.003
02/08/2022,07:34:10,0.178,0.0,0.208,0.003
02/08/2022,07:35:09,0.170,0.0,0.211,0.003
02/08/2022,07:36:10,0.183,0.0,0.214,0.003
02/08/2022,07:37:09,0.174,0.0,0.217,0.003
02/08/2022,07:38:10,0.164,0.0,0.22,0.003
02/08/2022,07:39:09,0.152,0.0,0.222,0.002
02/08/2022,07:40:10,0.158,0.0,0.225,0.003
02/08/2022,07:41:09,0.156,0.0,0.228,0.003
02/08/2022,07:42:09,0.151,0.0,0.23,0.002
02/08/2022,07:43:10,0.152,0.0,0.233,0.003
02/08/2022,07:44:10,0.167,0.0,0.235,0.002
02/08/2022,07:45:09,0.176,0.0,0.238,0.003
02/08/2022,07:46:09,0.190,0.0,0.241,0.003
02/08/2022,07:47:09,0.206,0.0,0.245,0.004
02/08/2022,07:48:09,0.212,0.0,0.248,0.003
02/08/2022,07:49:09,0.217,0.0,0.252,0.004
02/08/2022,07:50:09,0.217,0.0,0.255,0.003
02/08/2022,07:51:18,0.231,1.0,0.259,0.004
02/08/2022,07:52:09,0.220,1.0,0.263,0.004
02/08/2022,07:53:09,0.208,0.0,0.266,0.003
02/08/2022,07:54:09,0.221,1.0,0.27,0.004
02/08/2022,07:55:09,0.242,1.0,0.274,0.004
02/08/2022,07:56:10,0.260,1.0,0.278,0.004
02/08/2022,07:57:18,0.283,1.0,0.283,0.005
02/08/2022,07:58:09,0.297,1.0,0.287,0.004
02/08/2022,07:59:09,0.299,1.0,0.292,0.005
02/08/2022,08:00:09,0.307,1.0,0.297,0.005
02/08/2022,08:01:09,0.324,1.0,0.302,0.005
02/08/2022,08:02:09,0.318,1.0,0.308,0.006
02/08/2022,08:03:09,0.310,1.0,0.313,0.005
02/08/2022,08:04:09,0.313,1.0,0.318,0.005
02/08/2022,08:05:09,0.291,1.0,0.323,0.005
02/08/2022,08:06:09,0.316,1.0,0.328,0.005
02/08/2022,08:07:10,0.340,1.0,0.334,0.006
02/08/2022,08:08:09,0.353,1.0,0.339,0.005
02/08/2022,08:09:09,0.383,1.0,0.346,0.007
02/08/2022,08:10:09,0.384,1.0,0.352,0.006
02/08/2022,08:11:09,0.355,1.0,0.358,0.006
02/08/2022,08:12:09,0.383,1.0,0.364,0.006
02/08/2022,08:13:09,0.426,1.0,0.371,0.007
02/08/2022,08:14:09,0.454,1.0,0.378,0.007
02/08/2022,08:15:09,0.456,1.0,0.386,0.008
02/08/2022,08:16:09,0.459,1.0,0.394,0.008
02/08/2022,08:17:09,0.446,1.0,0.401,0.007
02/08/2022,08:18:18,0.404,1.0,0.409,0.008
02/08/2022,08:19:08,0.429,1.0,0.415,0.006
02/08/2022,08:20:09,0.482,1.0,0.423,0.008
02/08/2022,08:21:09,0.475,1.0,0.431,0.008
02/08/2022,08:22:09,0.457,1.0,0.439,0.008
02/08/2022,08:23:10,0.514,1.0,0.447,0.008
02/08/2022,08:24:17,0.553,1.0,0.457,0.01
02/08/2022,08:25:09,0.557,1.0,0.465,0.008
02/08/2022,08:26:09,0.583,1.0,0.474,0.009
02/08/2022,08:27:10,0.554,1.0,0.484,0.01
02/08/2022,08:28:09,0.528,1.0,0.493,0.009
02/08/2022,08:29:10,0.507,1.0,0.501,0.008
02/08/2022,08:30:09,0.488,1.0,0.51,0.009
02/08/2022,08:31:09,0.444,1.0,0.517,0.007
02/08/2022,08:32:26,0.463,1.0,0.527,0.01
02/08/2022,08:34:10,0.449,1.0,0.54,0.013
02/08/2022,08:35:10,0.494,1.0,0.548,0.008
02/08/2022,08:36:09,0.464,1.0,0.556,0.008
02/08/2022,08:37:09,0.404,1.0,0.563,0.007
02/08/2022,08:38:09,0.353,1.0,0.57,0.007
02/08/2022,08:39:09,0.343,1.0,0.575,0.005
02/08/2022,08:40:09,0.298,1.0,0.581,0.006
02/08/2022,08:41:09,0.267,1.0,0.585,0.004
02/08/2022,08:42:17,0.280,1.0,0.591,0.006
02/08/2022,08:43:10,0.300,1.0,0.595,0.004
02/08/2022,08:44:10,0.380,1.0,0.6,0.005
02/08/2022,08:45:09,0.391,1.0,0.607,0.007
02/08/2022,08:46:09,0.459,1.0,0.614,0.007
02/08/2022,08:47:09,0.429,1.0,0.622,0.008
02/08/2022,08:48:09,0.369,1.0,0.628,0.006
02/08/2022,08:49:09,0.319,1.0,0.634,0.006
02/08/2022,08:50:09,0.340,1.0,0.639,0.005
02/08/2022,08:51:09,0.389,1.0,0.645,0.006
02/08/2022,08:52:09,0.381,1.0,0.652,0.007
02/08/2022,08:53:09,0.373,1.0,0.658,0.006
02/08/2022,08:54:10,0.368,1.0,0.664,0.006
02/08/2022,08:55:09,0.356,1.0,0.67,0.006
02/08/2022,08:56:09,0.361,1.0,0.676,0.006
02/08/2022,08:57:10,0.363,1.0,0.682,0.006
02/08/2022,08:58:10,0.393,1.0,0.689,0.007
02/08/2022,08:59:09,0.366,1.0,0.695,0.006
02/08/2022,09:00:09,0.365,1.0,0.701,0.006
02/08/2022,09:01:10,0.364,1.0,0.707,0.006
02/08/2022,09:02:10,0.343,1.0,0.713,0.006
02/08/2022,09:03:10,0.320,1.0,0.719,0.006
02/08/2022,09:04:09,0.316,1.0,0.724,0.005
02/08/2022,09:05:09,0.366,1.0,0.729,0.005
02/08/2022,09:06:09,0.405,1.0,0.736,0.007
02/08/2022,09:07:09,0.390,1.0,0.742,0.006
02/08/2022,09:08:10,0.396,1.0,0.749,0.007
02/08/2022,09:09:18,0.456,1.0,0.757,0.008
02/08/2022,09:10:10,0.494,1.0,0.764,0.007
02/08/2022,09:11:10,0.527,1.0,0.773,0.009
02/08/2022,09:12:09,0.512,1.0,0.781,0.008
02/08/2022,09:13:09,0.482,1.0,0.79,0.009
02/08/2022,09:14:10,0.445,1.0,0.797,0.007
02/08/2022,09:15:09,0.459,1.0,0.805,0.008
02/08/2022,09:16:09,0.716,2.0,0.814,0.009
02/08/2022,09:17:09,0.898,2.0,0.828,0.014
02/08/2022,09:18:09,1.445,3.0,0.847,0.019
02/08/2022,09:19:10,1.314,3.0,0.871,0.024
02/08/2022,09:20:09,1.489,3.0,0.893,0.022
02/08/2022,09:21:10,1.511,3.0,0.917,0.024
02/08/2022,09:22:09,1.540,4.0,0.942,0.025
02/08/2022,09:23:09,1.488,3.0,0.968,0.026
02/08/2022,09:24:09,0.981,2.0,0.989,0.021
02/08/2022,09:25:09,0.846,2.0,1.005,0.016
02/08/2022,09:26:09,0.761,2.0,1.017,0.012
02/08/2022,09:27:09,0.724,2.0,1.03,0.013
02/08/2022,09:28:09,0.703,2.0,1.042,0.012
02/08/2022,09:29:09,0.725,2.0,1.054,0.012
02/08/2022,09:30:10,0.767,2.0,1.066,0.012
02/08/2022,09:31:09,0.749,2.0,1.079,0.013
02/08/2022,09:32:10,0.738,2.0,1.092,0.013
02/08/2022,09:33:09,0.754,2.0,1.104,0.012
02/08/2022,09:34:09,0.789,2.0,1.117,0.013
02/08/2022,09:35:18,0.846,2.0,1.133,0.016
02/08/2022,09:36:09,0.857,2.0,1.145,0.012
02/08/2022,09:37:10,0.883,2.0,1.159,0.014
02/08/2022,09:38:18,0.837,2.0,1.176,0.017
02/08/2022,09:39:09,0.835,2.0,1.187,0.011
02/08/2022,09:40:09,0.974,2.0,1.202,0.015
02/08/2022,09:41:09,1.022,2.0,1.219,0.017
02/08/2022,09:42:10,0.993,2.0,1.237,0.018
02/08/2022,09:43:09,0.963,2.0,1.253,0.016
02/08/2022,09:44:10,0.993,2.0,1.27,0.017
02/08/2022,09:45:10,1.547,4.0,1.291,0.021
02/08/2022,09:46:10,1.061,2.0,1.309,0.018
02/08/2022,09:47:10,0.953,2.0,1.325,0.016
02/08/2022,09:48:09,0.981,2.0,1.341,0.016
02/08/2022,09:49:11,0.953,2.0,1.358,0.017
02/08/2022,09:50:09,1.036,2.0,1.374,0.016
02/08/2022,09:51:10,1.243,3.0,1.396,0.022
02/08/2022,09:52:09,1.023,2.0,1.415,0.019
02/08/2022,09:53:17,1.025,2.0,1.435,0.02
02/08/2022,09:54:10,1.013,2.0,1.45,0.015
02/08/2022,09:55:09,0.958,2.0,1.466,0.016
02/08/2022,09:56:10,0.943,2.0,1.482,0.016
02/08/2022,09:57:09,0.938,2.0,1.498,0.016
02/08/2022,09:58:11,0.828,2.0,1.512,0.014
02/08/2022,09:59:17,0.850,2.0,1.528,0.016
02/08/2022,10:00:10,0.810,2.0,1.54,0.012
02/08/2022,10:01:10,0.769,2.0,1.553,0.013
02/08/2022,10:02:09,0.715,2.0,1.565,0.012
02/08/2022,10:03:10,0.693,2.0,1.577,0.012
02/08/2022,10:04:10,0.763,2.0,1.589,0.012
02/08/2022,10:05:09,0.775,2.0,1.602,0.013
02/08/2022,10:06:10,0.738,2.0,1.615,0.013
02/08/2022,10:07:09,0.706,2.0,1.627,0.012
02/08/2022,10:08:10,0.662,2.0,1.638,0.011
02/08/2022,10:09:09,0.660,2.0,1.649,0.011
02/08/2022,10:10:10,0.707,2.0,1.66,0.011
02/08/2022,10:11:09,0.706,2.0,1.672,0.012
02/08/2022,10:12:09,0.717,2.0,1.684,0.012
02/08/2022,10:13:09,0.813,2.0,1.696,0.012